Location: Gro�wechsungen
(51.4926°N, 10.6901°E)
Time: 07:57:11
(UTC+00:00)

SPOT 3 Rocket - Pass Details

Date: 02 February 2021
Orbit: 780 x 794 km, 98.7° (Epoch: 24 February)

Event Time Altitude Azimuth Distance (km) Brightness Sun altitude
Exits shadow 20:11:17 20° 333° (NNW) 1,748 5.7 -37.4°
Drops below altitude 10° 20:12:53 10° 338° (NNW) 2,353 6.4 -37.6°
Sets 20:15:16 0° 343° (NNW) 3,288 7.2 -38.0°
